Regional Weather Roundup
Issued by NWS

Home | Current Version | Previous Version | Text Only | Print | Product List | Glossary On
Versions: 1 2 3 4 5 6 7 8 9 10 11 12 13 14 15 16 17 18 19 20 21 22 23 24 25 26 27 28 29 30 31 32 33 34 35 36 37 38 39 40 41 42 43 44 45 46 47 48 49 50
000
ASUS43 KFSD 271210
RWRSD

WEATHER ROUNDUP FOR SOUTH DAKOTA
NATIONAL WEATHER SERVICE SIOUX FALLS SD
700 AM CDT WED MAY 27 2015

NOTE: "FAIR" INDICATES FEW OR NO CLOUDS BELOW 12,000 FEET WITH NO
SIGNIFICANT WEATHER AND/OR OBSTRUCTIONS TO VISIBILITY.


SDZ001>005-009-010-012>017-271300-
NORTHWEST AND NORTH CENTRAL SOUTH DAKOTA

CITY           SKY/WX    TMP DP  RH WIND       PRES   REMARKS
BUFFALO          N/A     52  47  83 SE6       29.90S
FAITH            N/A     54  45  71 S12       29.97S
MOBRIDGE       CLEAR     55  52  89 CALM      29.95R
$$

SDZ012>016-024>037-041>051-057-063-072>074-271300-
SOUTHWEST AND SOUTH CENTRAL SOUTH DAKOTA

CITY           SKY/WX    TMP DP  RH WIND       PRES   REMARKS
RAPID CTY ARPT CLOUDY    51  49  92 CALM      29.99R
PIERRE         CLEAR     52  49  89 CALM      29.97R
CUSTER         CLOUDY    45  43  93 W5        30.06S
ELLSWORTH AFB  CLOUDY    52  49  90 S7        29.99R
PHILIP         PTCLDY    52  47  83 CALM      29.99R
PINE RIDGE     PTCLDY    55  49  80 SE7       30.03S
SPEARFISH      MOCLDY    50  46  87 CALM      30.01R
WINNER         FAIR      60  45  57 SW8       30.01R
$$

SDZ004>011-016>023-039-040-271300-
NORTHEAST SOUTH DAKOTA

CITY           SKY/WX    TMP DP  RH WIND       PRES   REMARKS
ABERDEEN       CLEAR     55  50  83 NW3       29.95R
WATERTOWN      SUNNY     55  49  80 S5        29.95R
BROOKINGS      SUNNY     55  48  76 W5        29.97S
SISSETON         N/A     60  51  72 NW8       29.90R
$$

SDZ017-020-022-023-036>040-048>070-271300-
SOUTHEAST SOUTH DAKOTA

CITY           SKY/WX    TMP DP  RH WIND       PRES   REMARKS
SIOUX FALLS    SUNNY     55  50  83 W5        29.98R
HURON          CLEAR     53  50  89 SE3       29.97R
CHAMBERLAIN    CLEAR     54  49  85 W6        30.00R
MITCHELL       CLEAR     57  51  80 W6        29.98R
YANKTON        CLEAR     55  48  76 CALM      29.99R
$$

ABBREVIATIONS USED IN REMARKS
   TC - TEMPERATURE IN CELSIUS
  WCI - WIND CHILL INDEX
   HX - HEAT INDEX
  VSB - VISIBILITY




USA.gov is the U.S. government's official web portal to all federal, state and local government web resources and services.